| time (UTC) | temp F | wind direction | speed MPH | gust MPH | rain 1hr in | rain 24hr in | rain mn in | humidity % | barometer mb |
| 20260510092035 | 64 | 333 | 0.0 | 0.0 | 0.29 | 0.29 | 0.29 | 91 | 1012.6 |
| 20260510091528 | 64 | 333 | 0.0 | 0.0 | 0.26 | 0.26 | 0.26 | 91 | 1012.3 |
| 20260510091042 | 63 | 333 | 0.0 | 0.0 | 0.24 | 0.24 | 0.24 | 90 | 1012.5 |
| 20260510090534 | 64 | 333 | 0.0 | 0.0 | 0.21 | 0.21 | 0.21 | 89 | 1014.2 |
| 20260510090049 | 63 | 339 | 0.0 | 0.0 | 0.19 | 0.19 | 0.19 | 89 | 1014.5 |
| 20260510085541 | 63 | 332 | 0.0 | 0.0 | 0.18 | 0.18 | 0.18 | 89 | 1014.3 |
| 20260510085035 | 63 | 334 | 0.0 | 0.0 | 0.15 | 0.15 | 0.15 | 89 | 1014.6 |
| 20260510084545 | 64 | 332 | 0.0 | 0.0 | 0.13 | 0.13 | 0.13 | 89 | 1014.6 |
| 20260510084107 | 65 | 331 | 0.0 | 0.0 | 0.09 | 0.09 | 0.09 | 88 | 1014.9 |
| 20260510083538 | 66 | 332 | 0.0 | 0.0 | 0.05 | 0.05 | 0.05 | 87 | 1015.1 |
| 20260510083028 | 67 | 338 | 0.0 | 0.0 | 0.03 | 0.03 | 0.03 | 86 | 1015.0 |
| 20260510082539 | 68 | 333 | 0.0 | 0.0 | 0.02 | 0.02 | 0.02 | 85 | 1013.8 |
| 20260510082031 | 68 | 333 | 0.0 | 0.0 | 0.00 | 0.00 | 0.00 | 85 | 1013.6 |
| 20260510081541 | 68 | 339 | 0.0 | 0.0 | 0.00 | 0.00 | 0.00 | 85 | 1013.5 |
| 20260510081030 | 68 | 332 | 0.0 | 0.0 | 0.00 | 0.00 | 0.00 | 85 | 1012.9 |
| 20260510080532 | 69 | 333 | 0.0 | 0.0 | 0.00 | 0.00 | 0.00 | 85 | 1012.7 |
| 20260510080039 | 69 | 336 | 0.0 | 0.0 | 0.00 | 0.00 | 0.00 | 85 | 1012.7 |
| 20260510075550 | 69 | 336 | 0.0 | 0.0 | 0.00 | 0.00 | 0.00 | 85 | 1012.5 |
| 20260510075105 | 69 | 339 | 0.0 | 0.0 | 0.00 | 0.00 | 0.00 | 85 | 1012.2 |
| 20260510074534 | 70 | 331 | 0.0 | 0.0 | 0.00 | 0.00 | 0.00 | 86 | 1012.5 |
| 20260510074045 | 70 | 333 | 0.0 | 0.0 | 0.00 | 0.00 | 0.00 | 86 | 1012.5 |
| 20260510073551 | 71 | 331 | 0.0 | 0.0 | 0.00 | 0.00 | 0.00 | 86 | 1012.3 |
| 20260510073041 | 72 | 332 | 0.0 | 0.0 | 0.00 | 0.00 | 0.00 | 88 | 1011.8 |
| 20260510072532 | 72 | 332 | 0.0 | 0.0 | 0.00 | 0.00 | 0.00 | 89 | 1011.0 |
| 20260510072038 | 73 | 332 | 0.0 | 0.0 | 0.00 | 0.00 | 0.00 | 89 | 1010.5 |
| 20260510071531 | 73 | 332 | 0.0 | 0.0 | 0.00 | 0.00 | 0.00 | 89 | 1010.3 |
| 20260510071058 | 73 | 332 | 0.0 | 0.0 | 0.00 | 0.00 | 0.00 | 89 | 1010.5 |
| 20260510070545 | 73 | 334 | 0.0 | 0.0 | 0.00 | 0.00 | 0.00 | 89 | 1010.9 |
| 20260510070059 | 74 | 333 | 0.0 | 0.0 | 0.00 | 0.00 | 0.00 | 88 | 1011.0 |
| 20260510065549 | 74 | 333 | 0.0 | 0.0 | 0.00 | 0.00 | 0.00 | 88 | 1010.9 |
| 20260510065037 | 74 | 332 | 0.0 | 0.0 | 0.00 | 0.00 | 0.00 | 87 | 1010.9 |
| 20260510064547 | 74 | 333 | 0.0 | 0.0 | 0.00 | 0.00 | 0.00 | 87 | 1010.6 |
| 20260510064035 | 74 | 333 | 0.0 | 0.0 | 0.00 | 0.00 | 0.00 | 86 | 1011.3 |
| 20260510063605 | 74 | 331 | 0.0 | 0.0 | 0.00 | 0.00 | 0.00 | 86 | 1012.4 |
| 20260510063035 | 74 | 332 | 0.0 | 0.0 | 0.00 | 0.00 | 0.00 | 86 | 1012.8 |
| 20260510062546 | 75 | 331 | 0.0 | 0.0 | 0.00 | 0.00 | 0.00 | 87 | 1012.9 |
| 20260510062036 | 75 | 338 | 0.0 | 0.0 | 0.00 | 0.00 | 0.00 | 87 | 1013.0 |
| 20260510061542 | 75 | 331 | 0.0 | 0.0 | 0.00 | 0.00 | 0.00 | 87 | 1013.1 |
| 20260510061045 | 75 | 331 | 0.0 | 0.0 | 0.00 | 0.00 | 0.00 | 88 | 1013.0 |
| 20260510060559 | 75 | 331 | 0.0 | 0.0 | 0.00 | 0.00 | 0.00 | 87 | 1012.9 |
| 20260510060042 | 75 | 338 | 0.0 | 0.0 | 0.00 | 0.00 | 0.00 | 87 | 1012.8 |
| 20260510055543 | 75 | 332 | 0.0 | 0.0 | 0.00 | 0.01 | 0.00 | 87 | 1012.9 |
| 20260510055035 | 75 | 338 | 0.0 | 0.0 | 0.00 | 0.01 | 0.00 | 88 | 1013.0 |
| 20260510054549 | 75 | 331 | 0.0 | 0.0 | 0.00 | 0.01 | 0.00 | 88 | 1012.7 |
| 20260510054035 | 75 | 332 | 0.0 | 0.0 | 0.00 | 0.01 | 0.00 | 88 | 1012.1 |
| 20260510053542 | 75 | 331 | 0.0 | 0.0 | 0.00 | 0.01 | 0.00 | 88 | 1011.5 |
| 20260510053032 | 74 | 332 | 0.0 | 0.0 | 0.00 | 0.01 | 0.00 | 88 | 1010.8 |
| 20260510052540 | 74 | 331 | 0.0 | 0.0 | 0.00 | 0.01 | 0.00 | 88 | 1010.5 |
| 20260510052032 | 74 | 332 | 0.0 | 0.0 | 0.00 | 0.01 | 0.00 | 88 | 1010.3 |
| 20260510051539 | 74 | 333 | 0.0 | 0.0 | 0.00 | 0.01 | 0.00 | 87 | 1010.1 |
| 20260510051111 | 74 | 333 | 0.0 | 0.0 | 0.00 | 0.01 | 0.00 | 87 | 1010.0 |
| 20260510050540 | 74 | 333 | 0.0 | 0.0 | 0.00 | 0.01 | 0.00 | 86 | 1009.8 |
| 20260510050032 | 74 | 334 | 0.0 | 0.0 | 0.00 | 0.01 | 0.00 | 86 | 1009.8 |
| 20260510045600 | 74 | 333 | 0.0 | 0.0 | 0.00 | 0.01 | 0.01 | 85 | 1009.7 |
| 20260510045046 | 74 | 333 | 0.0 | 0.0 | 0.00 | 0.01 | 0.01 | 85 | 1009.7 |
| 20260510044531 | 74 | 333 | 0.0 | 0.0 | 0.00 | 0.01 | 0.01 | 84 | 1009.7 |
| 20260510044046 | 74 | 333 | 0.0 | 0.0 | 0.00 | 0.01 | 0.01 | 83 | 1009.6 |
| 20260510043537 | 74 | 333 | 0.0 | 0.0 | 0.00 | 0.01 | 0.01 | 82 | 1009.3 |
| 20260510043048 | 74 | 333 | 0.0 | 0.0 | 0.00 | 0.01 | 0.01 | 82 | 1009.2 |
| 20260510042535 | 74 | 333 | 0.0 | 0.0 | 0.00 | 0.01 | 0.01 | 81 | 1009.2 |
| 20260510042042 | 74 | 332 | 0.0 | 0.0 | 0.00 | 0.01 | 0.01 | 80 | 1009.2 |
| 20260510041555 | 74 | 333 | 0.0 | 0.0 | 0.00 | 0.01 | 0.01 | 80 | 1009.2 |
| 20260510041041 | 74 | 333 | 0.0 | 0.0 | 0.00 | 0.01 | 0.01 | 80 | 1009.3 |
| 20260510040530 | 74 | 333 | 0.0 | 0.0 | 0.00 | 0.01 | 0.01 | 79 | 1009.2 |
| 20260510040044 | 74 | 334 | 0.0 | 0.0 | 0.00 | 0.01 | 0.01 | 79 | 1009.1 |
| 20260510035532 | 74 | 333 | 0.0 | 0.0 | 0.00 | 0.01 | 0.01 | 78 | 1009.2 |
| 20260510035043 | 74 | 333 | 0.0 | 0.0 | 0.00 | 0.01 | 0.01 | 78 | 1009.3 |
| 20260510034532 | 75 | 333 | 0.0 | 0.0 | 0.00 | 0.01 | 0.01 | 78 | 1009.4 |
| 20260510034107 | 75 | 333 | 0.0 | 0.0 | 0.00 | 0.01 | 0.01 | 77 | 1009.4 |
| 20260510033538 | 75 | 333 | 0.0 | 0.0 | 0.00 | 0.01 | 0.01 | 77 | 1009.5 |
| 20260510033035 | 75 | 333 | 0.0 | 0.0 | 0.00 | 0.01 | 0.01 | 76 | 1009.6 |
| 20260510032543 | 75 | 332 | 0.0 | 0.0 | 0.00 | 0.01 | 0.01 | 76 | 1009.5 |
| 20260510032029 | 75 | 333 | 0.0 | 0.0 | 0.00 | 0.01 | 0.01 | 75 | 1009.5 |
| 20260510031544 | 75 | 334 | 0.0 | 0.0 | 0.00 | 0.01 | 0.01 | 74 | 1009.5 |
| 20260510031041 | 76 | 332 | 0.0 | 0.0 | 0.00 | 0.01 | 0.01 | 74 | 1009.4 |
| 20260510030537 | 76 | 333 | 0.0 | 0.0 | 0.00 | 0.01 | 0.01 | 74 | 1009.4 |
| 20260510030100 | 76 | 333 | 0.0 | 0.0 | 0.00 | 0.01 | 0.01 | 74 | 1009.4 |
| 20260510025533 | 76 | 333 | 0.0 | 0.0 | 0.00 | 0.01 | 0.01 | 74 | 1009.3 |
| 20260510025100 | 76 | 333 | 0.0 | 0.0 | 0.00 | 0.01 | 0.01 | 74 | 1009.4 |
| 20260510024532 | 76 | 333 | 0.0 | 0.0 | 0.00 | 0.01 | 0.01 | 74 | 1009.3 |
| 20260510024027 | 76 | 333 | 0.0 | 0.0 | 0.00 | 0.01 | 0.01 | 73 | 1009.3 |
| 20260510023555 | 76 | 333 | 0.0 | 0.0 | 0.00 | 0.01 | 0.01 | 73 | 1009.5 |
| 20260510023032 | 76 | 333 | 0.0 | 0.0 | 0.00 | 0.01 | 0.01 | 73 | 1009.5 |
| 20260510022545 | 76 | 333 | 0.0 | 0.0 | 0.00 | 0.01 | 0.01 | 73 | 1009.5 |
| 20260510022033 | 77 | 333 | 0.0 | 0.0 | 0.00 | 0.01 | 0.01 | 72 | 1009.5 |
| 20260510021544 | 77 | 333 | 0.0 | 0.0 | 0.00 | 0.01 | 0.01 | 72 | 1009.5 |
| 20260510021033 | 77 | 333 | 0.0 | 0.0 | 0.00 | 0.01 | 0.01 | 72 | 1009.4 |
| 20260510020600 | 77 | 333 | 0.0 | 0.0 | 0.00 | 0.01 | 0.01 | 72 | 1009.3 |
| 20260510020047 | 77 | 333 | 0.0 | 0.0 | 0.00 | 0.01 | 0.01 | 71 | 1009.2 |
| 20260510015557 | 77 | 332 | 0.0 | 0.0 | 0.00 | 0.01 | 0.01 | 71 | 1009.2 |
| 20260510015047 | 78 | 332 | 0.0 | 0.0 | 0.00 | 0.01 | 0.01 | 71 | 1009.2 |